Weather History for Gage, OK

Change the Weather History Date:

Tuesday, March 18, 2014

  Actual Average Record
Temperature  
Mean Temperature 52 °F -  
Max Temperature 66 °F 59 °F 89 °F (1978)
Min Temperature 37 °F 35 °F 11 °F (1965)
Degree Days  
Heating Degree Days 14    
Growing Degree Days 2 (Base 50)    
Moisture  
Dew Point 23 °F    
Average Humidity 36    
Maximum Humidity 62    
Minimum Humidity 15    
Precipitation  
Precipitation 0.00 in - - ()
Sea Level Pressure  
Sea Level Pressure 29.54 in    
Wind  
Wind Speed 22 mph (WNW)    
Max Wind Speed 33 mph    
Max Gust Speed 48 mph    
Visibility 10 miles    
Events      
Averages and records for this station are not official NWS values.
T = Trace of Precipitation, MM = Missing Value Source: NWS Daily Summary

Daily Weather History Graph

Daily Weather History Graph

Search for Another Location

Airport:

Trip Planner

Search our weather history database for the weather conditions in past years. The results will help you decide how hot, cold, wet, or windy it might be!

Date:

Astronomy

Mar. 18, 2014 Rise Set
Actual Time 7:45 AM CDT 7:49 PM CDT
Civil Twilight 7:19 AM CDT 8:14 PM CDT
Nautical Twilight 6:50 AM CDT 8:44 PM CDT
Astronomical Twilight 6:19 AM CDT 9:15 PM CDT
Moon 10:03 PM CDT (3/18) 8:39 AM CDT (3/18)
Length of Visible Light 12h 54m
Length of Day
12h 03m
Waning Gibbous, 96% of the Moon is Illuminated
Mar 18
Waning Gibbous
Mar 23
Last Quarter
Mar 30
New
Apr 7
First Quarter
Apr 15
Full

Hourly Weather History & Observations

Time (CDT) Temp. Windchill Dew Point Humidity Pressure Visibility Wind Dir Wind Speed Gust Speed Precip Events Conditions
12:53 AM 51.1 °F - 24.1 °F 35% 29.29 in 10.0 mi South 32.2 mph 42.6 mph N/A   Clear
1:53 AM 50.0 °F - 25.0 °F 38% 29.26 in 10.0 mi South 29.9 mph 40.3 mph N/A   Clear
2:53 AM 50.0 °F - 24.1 °F 36% 29.28 in 10.0 mi SW 13.8 mph 35.7 mph N/A   Clear
3:04 AM 50.0 °F - 24.8 °F 37% 29.31 in 10.0 mi SSW 13.8 mph 21.9 mph N/A   Clear
3:53 AM 50.0 °F - 24.1 °F 36% 29.24 in 10.0 mi South 18.4 mph 26.5 mph N/A   Clear
4:53 AM 46.9 °F - 24.1 °F 41% 29.26 in 10.0 mi SSW 10.4 mph - N/A   Clear
5:53 AM 41.0 °F 35.8 °F 24.1 °F 51% 29.30 in 10.0 mi West 8.1 mph - N/A   Clear
6:53 AM 46.9 °F - 24.1 °F 41% 29.32 in 10.0 mi NNW 9.2 mph - N/A   Clear
7:53 AM 46.9 °F - 23.0 °F 39% 29.36 in 10.0 mi NW 13.8 mph - N/A   Clear
8:53 AM 50.0 °F - 21.0 °F 32% 29.38 in 10.0 mi NW 10.4 mph - N/A   Clear
9:53 AM 54.0 °F - 19.9 °F 26% 29.43 in 10.0 mi NW 17.3 mph 24.2 mph N/A   Clear
10:53 AM 57.0 °F - 18.0 °F 22% 29.46 in 10.0 mi NNW 20.7 mph 26.5 mph N/A   Clear
11:53 AM 61.0 °F - 17.1 °F 18% 29.48 in 10.0 mi NNW 18.4 mph 26.5 mph N/A   Clear
12:53 PM 64.0 °F - 19.0 °F 18% 29.51 in 10.0 mi NW 20.7 mph 32.2 mph N/A   Partly Cloudy
1:53 PM 64.0 °F - 18.0 °F 17% 29.53 in 10.0 mi NW 16.1 mph 24.2 mph N/A   Mostly Cloudy
2:53 PM 64.9 °F - 18.0 °F 16% 29.53 in 10.0 mi WNW 21.9 mph 29.9 mph N/A   Mostly Cloudy
3:53 PM 64.9 °F - 16.0 °F 15% 29.57 in 7.0 mi WNW 32.2 mph 43.7 mph N/A   Overcast
4:53 PM 63.0 °F - 18.0 °F 18% 29.61 in 4.0 mi WNW 33.4 mph 40.3 mph N/A   Haze
5:53 PM 55.9 °F - 25.0 °F 30% 29.73 in 7.0 mi NW 31.1 mph 40.3 mph N/A   Overcast
6:53 PM 51.1 °F - 24.1 °F 35% 29.81 in 10.0 mi NW 33.4 mph 48.3 mph N/A   Overcast
7:53 PM 45.0 °F 35.4 °F 27.0 °F 49% 29.89 in 10.0 mi NNW 28.8 mph 38.0 mph N/A   Mostly Cloudy
8:53 PM 41.0 °F 31.4 °F 27.0 °F 57% 29.97 in 10.0 mi NW 21.9 mph 42.6 mph N/A   Scattered Clouds
9:53 PM 39.9 °F 30.5 °F 27.0 °F 60% 30.03 in 10.0 mi NNW 19.6 mph 29.9 mph N/A   Partly Cloudy
10:53 PM 39.0 °F 29.6 °F 27.0 °F 62% 30.04 in 10.0 mi NNW 18.4 mph - N/A   Clear
11:53 PM 37.9 °F 29.2 °F 26.1 °F 62% 30.02 in 10.0 mi NNW 15.0 mph 23.0 mph N/A   Clear